When you browse on this site, cookies collect data to enhance your experience and personalize the content and advertising you see.
Visit our Privacy Policy to learn more. By continuing to use the site, you agree to this use of cookies and data.
  • En España
  • Lista de países
  • Para 7 días
  • Temperatura del agua
  • El tiempo en el mapa
  • Informadores
  • user-avatar
    Iniciar sesión

    Tiempo cada hora Kalemie

    Hoy, 20 Octubre, Domingo

    Tiempo Temperatura Precipitaciones Viento Presión Humedad
    00:00 +23°C° 0 mm 1 mps 705 mmHg 92%
    01:00 +23°C° 0 mm 1 mps 705 mmHg 93%
    02:00 +22°C° 0 mm 1 mps 705 mmHg 93%
    03:00 +22°C° 0 mm 1 mps 705 mmHg 94%
    04:00 +22°C° 0 mm 1 mps 705 mmHg 95%
    05:00 +22°C° 0 mm 1 mps 705 mmHg 96%
    06:00 +23°C° 0 mm 1 mps 706 mmHg 93%
    07:00 +24°C° 0 mm 1 mps 707 mmHg 89%
    08:00 +25°C° 0 mm 1 mps 707 mmHg 86%
    09:00 +27°C° 2 mm 1 mps 707 mmHg 83%
    10:00 +28°C° 2 mm 1 mps 707 mmHg 79%
    11:00 +29°C° 2 mm 1 mps 707 mmHg 76%
    12:00 +28°C° 2 mm 1 mps 706 mmHg 80%
    13:00 +27°C° 2 mm 1 mps 705 mmHg 84%
    14:00 +26°C° 2 mm 1 mps 704 mmHg 88%
    15:00 +26°C° 0.1 mm 1 mps 704 mmHg 88%
    16:00 +26°C° 0.1 mm 1 mps 704 mmHg 88%
    17:00 +24°C° 0.1 mm 0 mps 704 mmHg 87%
    18:00 +23°C° 0 mm 0 mps 704 mmHg 89%
    19:00 +22°C° 0 mm 0 mps 705 mmHg 92%
    20:00 +23°C° 0 mm 1 mps 705 mmHg 94%
    21:00 +20°C° 0 mm 0 mps 705 mmHg 94%
    22:00 +20°C° 0 mm 0 mps 705 mmHg 93%
    23:00 +20°C° 0 mm 0 mps 705 mmHg 93%

    Mañana, 21 Octubre, Lunes

    Tiempo Temperatura Precipitaciones Viento Presión Humedad
    00:00 +20°C° 0 mm 0 mps 705 mmHg 93%
    01:00 +20°C° 0 mm 0 mps 705 mmHg 92%
    02:00 +22°C° 0 mm 1 mps 705 mmHg 92%
    03:00 +22°C° 0.3 mm 1 mps 705 mmHg 93%
    04:00 +22°C° 0.3 mm 1 mps 705 mmHg 94%
    05:00 +22°C° 0.3 mm 1 mps 705 mmHg 95%
    06:00 +22°C° 0.5 mm 1 mps 706 mmHg 94%
    07:00 +23°C° 0.5 mm 1 mps 706 mmHg 93%
    08:00 +24°C° 0.5 mm 1 mps 707 mmHg 92%
    09:00 +24°C° 0.3 mm 1 mps 707 mmHg 91%
    10:00 +24°C° 0.3 mm 1 mps 706 mmHg 90%
    11:00 +25°C° 0.3 mm 1 mps 706 mmHg 88%
    12:00 +26°C° 0.1 mm 1 mps 705 mmHg 81%
    13:00 +28°C° 0.1 mm 1 mps 705 mmHg 74%
    14:00 +29°C° 0.1 mm 1 mps 704 mmHg 68%
    15:00 +29°C° 0.2 mm 1 mps 704 mmHg 72%
    16:00 +28°C° 0.2 mm 1 mps 703 mmHg 76%
    17:00 +27°C° 0.2 mm 1 mps 703 mmHg 81%
    18:00 +26°C° 0.1 mm 1 mps 704 mmHg 84%
    19:00 +23°C° 0.1 mm 0 mps 704 mmHg 88%
    20:00 +22°C° 0.1 mm 0 mps 705 mmHg 91%
    21:00 +23°C° 1.1 mm 1 mps 705 mmHg 93%
    22:00 +23°C° 1.1 mm 1 mps 705 mmHg 94%
    23:00 +23°C° 1.1 mm 1 mps 705 mmHg 96%

    Pasado mañana, 22 Octubre, Martes

    Tiempo Temperatura Precipitaciones Viento Presión Humedad
    00:00 +21°C° 0.4 mm 2 mps 705 mmHg 96%
    01:00 +21°C° 0.4 mm 2 mps 704 mmHg 96%
    02:00 +21°C° 0.4 mm 2 mps 704 mmHg 96%
    03:00 +20°C° 0 mm 2 mps 704 mmHg 96%
    04:00 +20°C° 0 mm 2 mps 704 mmHg 97%
    05:00 +20°C° 0 mm 2 mps 704 mmHg 97%
    06:00 +21°C° 0.1 mm 2 mps 705 mmHg 95%
    07:00 +23°C° 0.1 mm 2 mps 706 mmHg 93%
    08:00 +24°C° 0.1 mm 2 mps 707 mmHg 91%
    09:00 +26°C° 0 mm 2 mps 706 mmHg 84%
    10:00 +27°C° 0 mm 2 mps 706 mmHg 77%
    11:00 +29°C° 0 mm 1 mps 706 mmHg 71%
    12:00 +29°C° 1.3 mm 1 mps 705 mmHg 73%
    13:00 +29°C° 1.3 mm 1 mps 704 mmHg 74%
    14:00 +29°C° 1.3 mm 1 mps 703 mmHg 76%
    15:00 +28°C° 1.3 mm 1 mps 703 mmHg 80%
    16:00 +25°C° 1.3 mm 0 mps 703 mmHg 83%
    17:00 +24°C° 1.3 mm 0 mps 703 mmHg 87%
    18:00 +23°C° 0 mm 0 mps 703 mmHg 89%
    19:00 +23°C° 0 mm 0 mps 703 mmHg 90%
    20:00 +22°C° 0 mm 0 mps 704 mmHg 92%
    21:00 +21°C° 0 mm 0 mps 704 mmHg 93%
    22:00 +21°C° 0 mm 0 mps 704 mmHg 94%
    23:00 +21°C° 0 mm 0 mps 704 mmHg 94%

    23 Octubre, Miércoles

    Tiempo Temperatura Precipitaciones Viento Presión Humedad
    00:00 +21°C° 0 mm 0 mps 704 mmHg 94%
    01:00 +21°C° 0 mm 0 mps 704 mmHg 95%
    02:00 +21°C° 0 mm 0 mps 703 mmHg 95%
    03:00 +21°C° 0 mm 0 mps 704 mmHg 95%
    04:00 +21°C° 0 mm 0 mps 704 mmHg 95%
    05:00 +23°C° 0 mm 1 mps 704 mmHg 95%
    06:00 +23°C° 0 mm 1 mps 705 mmHg 94%
    07:00 +24°C° 0 mm 1 mps 705 mmHg 93%
    08:00 +24°C° 0 mm 1 mps 706 mmHg 91%
    09:00 +26°C° 1.2 mm 1 mps 706 mmHg 85%
    10:00 +28°C° 1.2 mm 1 mps 706 mmHg 80%
    11:00 +30°C° 1.2 mm 1 mps 706 mmHg 74%
    12:00 +30°C° 1.4 mm 1 mps 705 mmHg 72%
    13:00 +30°C° 1.4 mm 1 mps 704 mmHg 69%
    14:00 +30°C° 1.4 mm 1 mps 703 mmHg 67%
    15:00 +29°C° 0.7 mm 1 mps 703 mmHg 71%
    16:00 +29°C° 0.7 mm 1 mps 703 mmHg 76%
    17:00 +28°C° 0.7 mm 1 mps 703 mmHg 80%
    18:00 +27°C° 1.8 mm 1 mps 704 mmHg 83%
    19:00 +25°C° 1.8 mm 1 mps 704 mmHg 86%
    20:00 +24°C° 1.8 mm 1 mps 704 mmHg 89%
    21:00 +24°C° 0.1 mm 1 mps 704 mmHg 90%
    22:00 +24°C° 0.1 mm 1 mps 704 mmHg 91%
    23:00 +23°C° 0.1 mm 1 mps 704 mmHg 92%

    24 Octubre, Jueves

    Tiempo Temperatura Precipitaciones Viento Presión Humedad
    00:00 +23°C° 0 mm 1 mps 704 mmHg 92%
    01:00 +23°C° 0 mm 1 mps 704 mmHg 92%
    02:00 +23°C° 0 mm 1 mps 704 mmHg 91%
    03:00 +23°C° 0.3 mm 1 mps 704 mmHg 92%
    04:00 +23°C° 0.3 mm 1 mps 704 mmHg 92%
    05:00 +23°C° 0.3 mm 1 mps 704 mmHg 92%
    06:00 +23°C° 0.2 mm 1 mps 705 mmHg 91%
    07:00 +24°C° 0.2 mm 1 mps 705 mmHg 90%
    08:00 +25°C° 0.2 mm 1 mps 706 mmHg 89%
    09:00 +26°C° 0.5 mm 1 mps 706 mmHg 83%
    10:00 +28°C° 0.5 mm 1 mps 706 mmHg 78%
    11:00 +30°C° 0.5 mm 2 mps 705 mmHg 72%
    12:00 +30°C° 1.6 mm 1 mps 705 mmHg 71%
    13:00 +30°C° 1.6 mm 1 mps 704 mmHg 70%
    14:00 +30°C° 1.6 mm 1 mps 703 mmHg 69%
    15:00 +27°C° 0.4 mm 0 mps 703 mmHg 73%
    16:00 +27°C° 0.4 mm 0 mps 703 mmHg 76%
    17:00 +26°C° 0.4 mm 0 mps 704 mmHg 80%
    18:00 +25°C° 0.4 mm 0 mps 704 mmHg 84%
    19:00 +25°C° 0.4 mm 1 mps 704 mmHg 87%
    20:00 +24°C° 0.4 mm 1 mps 704 mmHg 91%
    21:00 +24°C° 0.5 mm 1 mps 704 mmHg 92%
    22:00 +24°C° 0.5 mm 1 mps 704 mmHg 92%
    23:00 +23°C° 0.5 mm 1 mps 704 mmHg 93%

    25 Octubre, Viernes

    Tiempo Temperatura Precipitaciones Viento Presión Humedad
    00:00 +23°C° 0.1 mm 1 mps 704 mmHg 93%
    01:00 +21°C° 0.1 mm 0 mps 704 mmHg 93%
    02:00 +21°C° 0.1 mm 0 mps 704 mmHg 92%
    03:00 +21°C° 0 mm 0 mps 704 mmHg 92%
    04:00 +21°C° 0 mm 0 mps 704 mmHg 92%
    05:00 +21°C° 0 mm 0 mps 704 mmHg 92%
    06:00 +22°C° 0 mm 0 mps 704 mmHg 89%
    07:00 +24°C° 0 mm 0 mps 705 mmHg 85%
    08:00 +25°C° 0 mm 0 mps 706 mmHg 81%
    09:00 +29°C° 0 mm 1 mps 705 mmHg 74%
    10:00 +30°C° 0 mm 1 mps 705 mmHg 67%
    11:00 +32°C° 0 mm 1 mps 705 mmHg 60%
    12:00 +32°C° 0.3 mm 2 mps 704 mmHg 60%
    13:00 +32°C° 0.3 mm 2 mps 703 mmHg 61%
    14:00 +32°C° 0.3 mm 2 mps 703 mmHg 62%
    15:00 +31°C° 1.1 mm 2 mps 702 mmHg 69%
    16:00 +30°C° 1.1 mm 1 mps 702 mmHg 75%
    17:00 +28°C° 1.1 mm 1 mps 702 mmHg 82%
    18:00 +27°C° 1.2 mm 1 mps 703 mmHg 85%
    19:00 +26°C° 1.2 mm 1 mps 703 mmHg 88%
    20:00 +23°C° 1.2 mm 0 mps 703 mmHg 90%
    21:00 +23°C° 1.9 mm 0 mps 703 mmHg 92%
    22:00 +22°C° 1.9 mm 0 mps 704 mmHg 93%
    23:00 +22°C° 1.9 mm 0 mps 704 mmHg 95%
    Mostrar más